Stündliche Wetter Bolshie Kirilly

Heute, 21 April, Mittwoch

Zeit Temperatur Niederschläge Wind Luftdruck Luftfeuchtigkeit
00:00 +3°C° 0 mm 2 m/S 740 mmHg 94%
01:00 +3°C° 0 mm 2 m/S 740 mmHg 94%
02:00 +3°C° 0 mm 2 m/S 739 mmHg 93%
03:00 +3°C° 0 mm 2 m/S 739 mmHg 93%
04:00 +3°C° 0 mm 2 m/S 739 mmHg 93%
05:00 +3°C° 0 mm 2 m/S 738 mmHg 93%
06:00 +3°C° 0 mm 2 m/S 739 mmHg 91%
07:00 +4°C° 0 mm 2 m/S 739 mmHg 88%
08:00 +3°C° 0 mm 3 m/S 739 mmHg 85%
09:00 +4°C° 0 mm 3 m/S 739 mmHg 81%
10:00 +4°C° 0 mm 3 m/S 739 mmHg 77%
11:00 +6°C° 0 mm 2 m/S 739 mmHg 73%
12:00 +6°C° 0 mm 2 m/S 739 mmHg 70%
13:00 +7°C° 0 mm 2 m/S 740 mmHg 67%
14:00 +7°C° 0 mm 2 m/S 740 mmHg 65%
15:00 +7°C° 0 mm 2 m/S 740 mmHg 67%
16:00 +7°C° 0 mm 2 m/S 740 mmHg 69%
17:00 +8°C° 0 mm 2 m/S 740 mmHg 71%
18:00 +7°C° 0 mm 2 m/S 741 mmHg 76%
19:00 +6°C° 0 mm 2 m/S 741 mmHg 80%
20:00 +5°C° 0 mm 2 m/S 741 mmHg 85%
21:00 +5°C° 0 mm 2 m/S 741 mmHg 87%
22:00 +5°C° 0 mm 2 m/S 742 mmHg 88%
23:00 +5°C° 0 mm 2 m/S 742 mmHg 90%

Morgen, 22 April, Donnerstag

Zeit Temperatur Niederschläge Wind Luftdruck Luftfeuchtigkeit
00:00 +4°C° 0 mm 2 m/S 742 mmHg 91%
01:00 +4°C° 0 mm 2 m/S 742 mmHg 91%
02:00 +3°C° 0 mm 2 m/S 742 mmHg 91%
03:00 +2°C° 0 mm 3 m/S 742 mmHg 91%
04:00 +3°C° 0 mm 3 m/S 742 mmHg 91%
05:00 +3°C° 0 mm 3 m/S 742 mmHg 91%
06:00 +4°C° 0 mm 3 m/S 743 mmHg 88%
07:00 +5°C° 0 mm 4 m/S 743 mmHg 85%
08:00 +6°C° 0 mm 4 m/S 743 mmHg 82%
09:00 +8°C° 0.1 mm 4 m/S 743 mmHg 76%
10:00 +10°C° 0.1 mm 5 m/S 743 mmHg 69%
11:00 +13°C° 0.1 mm 5 m/S 743 mmHg 62%
12:00 +13°C° 0.5 mm 5 m/S 742 mmHg 63%
13:00 +13°C° 0.5 mm 5 m/S 742 mmHg 64%
14:00 +13°C° 0.5 mm 5 m/S 742 mmHg 65%
15:00 +13°C° 0.5 mm 5 m/S 742 mmHg 64%
16:00 +13°C° 0.5 mm 5 m/S 742 mmHg 64%
17:00 +13°C° 0.5 mm 4 m/S 742 mmHg 63%
18:00 +12°C° 0.1 mm 4 m/S 742 mmHg 70%
19:00 +10°C° 0.1 mm 3 m/S 742 mmHg 77%
20:00 +9°C° 0.1 mm 3 m/S 742 mmHg 84%
21:00 +8°C° 0 mm 4 m/S 742 mmHg 85%
22:00 +7°C° 0 mm 4 m/S 742 mmHg 86%
23:00 +7°C° 0 mm 4 m/S 742 mmHg 87%

übermorgen, 23 April, Freitag

Zeit Temperatur Niederschläge Wind Luftdruck Luftfeuchtigkeit
00:00 +7°C° 0 mm 4 m/S 742 mmHg 89%
01:00 +7°C° 0 mm 4 m/S 742 mmHg 90%
02:00 +7°C° 0 mm 4 m/S 742 mmHg 92%
03:00 +7°C° 0 mm 4 m/S 742 mmHg 92%
04:00 +6°C° 0 mm 4 m/S 742 mmHg 92%
05:00 +6°C° 0 mm 4 m/S 742 mmHg 92%
06:00 +7°C° 0.2 mm 3 m/S 743 mmHg 91%
07:00 +5°C° 0.2 mm 3 m/S 743 mmHg 91%
08:00 +5°C° 0.2 mm 2 m/S 744 mmHg 90%
09:00 +5°C° 1.3 mm 2 m/S 744 mmHg 91%
10:00 +4°C° 1.3 mm 2 m/S 744 mmHg 93%
11:00 +4°C° 1.3 mm 2 m/S 744 mmHg 94%
12:00 +4°C° 0.7 mm 2 m/S 744 mmHg 94%
13:00 +4°C° 0.7 mm 2 m/S 744 mmHg 94%
14:00 +4°C° 0.7 mm 2 m/S 744 mmHg 93%
15:00 +4°C° 0.7 mm 2 m/S 744 mmHg 93%
16:00 +5°C° 0.7 mm 1 m/S 744 mmHg 94%
17:00 +5°C° 0.7 mm 1 m/S 744 mmHg 94%
18:00 +5°C° 0.1 mm 1 m/S 743 mmHg 94%
19:00 +5°C° 0.1 mm 1 m/S 743 mmHg 94%
20:00 +5°C° 0.1 mm 1 m/S 743 mmHg 95%
21:00 +5°C° 0 mm 1 m/S 743 mmHg 94%
22:00 +5°C° 0 mm 1 m/S 742 mmHg 93%
23:00 +3°C° 0 mm 2 m/S 742 mmHg 92%

24 April, Samstag

Zeit Temperatur Niederschläge Wind Luftdruck Luftfeuchtigkeit
00:00 +3°C° 0 mm 2 m/S 742 mmHg 91%
01:00 +3°C° 0 mm 2 m/S 742 mmHg 90%
02:00 +2°C° 0 mm 2 m/S 741 mmHg 90%
03:00 +2°C° 0 mm 2 m/S 741 mmHg 90%
04:00 +2°C° 0 mm 2 m/S 741 mmHg 90%
05:00 +1°C° 0 mm 2 m/S 741 mmHg 89%
06:00 +2°C° 0 mm 2 m/S 741 mmHg 83%
07:00 +3°C° 0 mm 3 m/S 742 mmHg 77%
08:00 +4°C° 0 mm 3 m/S 742 mmHg 71%
09:00 +5°C° 0.2 mm 4 m/S 742 mmHg 66%
10:00 +5°C° 0.2 mm 4 m/S 741 mmHg 62%
11:00 +6°C° 0.2 mm 5 m/S 741 mmHg 57%
12:00 +6°C° 0.3 mm 5 m/S 741 mmHg 58%
13:00 +6°C° 0.3 mm 5 m/S 742 mmHg 59%
14:00 +4°C° 0.3 mm 6 m/S 742 mmHg 60%
15:00 +5°C° 0.2 mm 5 m/S 742 mmHg 63%
16:00 +5°C° 0.2 mm 5 m/S 742 mmHg 67%
17:00 +3°C° 0.2 mm 5 m/S 742 mmHg 70%
18:00 +3°C° 0 mm 4 m/S 742 mmHg 75%
19:00 +2°C° 0 mm 3 m/S 742 mmHg 79%
20:00 +2°C° 0 mm 2 m/S 742 mmHg 84%
21:00 +1°C° 0 mm 2 m/S 742 mmHg 87%
22:00 +1°C° 0 mm 2 m/S 742 mmHg 90%
23:00 -1°C° 0 mm 2 m/S 742 mmHg 92%

25 April, Sonntag

Zeit Temperatur Niederschläge Wind Luftdruck Luftfeuchtigkeit
00:00 -1°C° 0 mm 2 m/S 742 mmHg 92%
01:00 -1°C° 0 mm 2 m/S 742 mmHg 93%
02:00 -1°C° 0 mm 2 m/S 742 mmHg 93%
03:00 +1°C° 0 mm 2 m/S 742 mmHg 92%
04:00 +1°C° 0 mm 2 m/S 742 mmHg 92%
05:00 +1°C° 0 mm 2 m/S 742 mmHg 92%
06:00 +1°C° 0 mm 3 m/S 742 mmHg 86%
07:00 +2°C° 0 mm 3 m/S 742 mmHg 80%
08:00 +3°C° 0 mm 4 m/S 742 mmHg 74%
09:00 +4°C° 0.4 mm 4 m/S 742 mmHg 67%
10:00 +5°C° 0.4 mm 5 m/S 742 mmHg 60%
11:00 +6°C° 0.4 mm 5 m/S 742 mmHg 53%
12:00 +6°C° 0.2 mm 5 m/S 742 mmHg 52%
13:00 +6°C° 0.2 mm 5 m/S 742 mmHg 51%
14:00 +6°C° 0.2 mm 5 m/S 742 mmHg 50%
15:00 +6°C° 0.1 mm 5 m/S 742 mmHg 53%
16:00 +6°C° 0.1 mm 4 m/S 742 mmHg 55%
17:00 +5°C° 0.1 mm 3 m/S 742 mmHg 58%
18:00 +4°C° 0.2 mm 3 m/S 742 mmHg 66%
19:00 +3°C° 0.2 mm 3 m/S 743 mmHg 75%
20:00 +3°C° 0.2 mm 2 m/S 743 mmHg 83%
21:00 +2°C° 0.1 mm 2 m/S 743 mmHg 85%
22:00 +2°C° 0.1 mm 2 m/S 743 mmHg 86%
23:00 +1°C° 0.1 mm 2 m/S 743 mmHg 88%

26 April, Montag

Zeit Temperatur Niederschläge Wind Luftdruck Luftfeuchtigkeit
00:00 +1°C° 0 mm 2 m/S 743 mmHg 89%
01:00 -1°C° 0 mm 2 m/S 743 mmHg 91%
02:00 -1°C° 0 mm 2 m/S 743 mmHg 92%
03:00 -1°C° 0 mm 2 m/S 743 mmHg 93%
04:00 -1°C° 0 mm 2 m/S 743 mmHg 94%
05:00 +1°C° 0 mm 1 m/S 743 mmHg 95%
06:00 +2°C° 0 mm 1 m/S 743 mmHg 87%
07:00 +3°C° 0 mm 2 m/S 743 mmHg 80%
08:00 +4°C° 0 mm 2 m/S 743 mmHg 72%
09:00 +5°C° 0 mm 2 m/S 743 mmHg 66%
10:00 +6°C° 0 mm 2 m/S 743 mmHg 59%
11:00 +8°C° 0 mm 1 m/S 743 mmHg 52%
12:00 +8°C° 0 mm 2 m/S 743 mmHg 50%
13:00 +8°C° 0 mm 2 m/S 743 mmHg 48%
14:00 +9°C° 0 mm 2 m/S 743 mmHg 46%
15:00 +8°C° 0.1 mm 2 m/S 742 mmHg 48%
16:00 +8°C° 0.1 mm 2 m/S 742 mmHg 51%
17:00 +8°C° 0.1 mm 2 m/S 742 mmHg 54%
18:00 +7°C° 0 mm 2 m/S 742 mmHg 60%
19:00 +6°C° 0 mm 2 m/S 742 mmHg 66%
20:00 +3°C° 0 mm 3 m/S 742 mmHg 72%
21:00 +3°C° 0.1 mm 3 m/S 742 mmHg 74%
22:00 +3°C° 0.1 mm 3 m/S 742 mmHg 76%
23:00 +3°C° 0.1 mm 3 m/S 742 mmHg 77%
Mehr zeigen

Wir brauchen deine Erlaubnis

Meteoprog und unser Service Anbieter werden persönliche Daten aufbewahren, so wie Cookies, Geräte Bezeichnung oder ähnliche Technologien von deinem Gerät und Prozess, so wie Persönliche Daten Inhalte und Werbungen, genauso wie social Media und den Verkehr zu analysieren.

  • Aufbewahrung und/oder Zugang zu deiner Geräte Informationen.

    Cookies, Geräte Bezeichnung oder andere Informationen, können aufbewahrt oder Zugang zu deinem Gerät erhalten, für den Grund, der oben angegeben wird.

  • Personalisierte Werbung und Inhalte, Messungen, Einblick in das Publikum und Produkt Entwicklung.

    Werbungen und Inhalte können personalisiert werden, basierend auf ein Profil. Mehr Daten können besser personalisierte Werbungen und Inhalte hinzufügen. Werbung und Inhalte können gezeigt und gemessen werden. Einblicke über das Publikum, welche die Werbung gesehen haben und den Inhalt, können abgeleitet werden. So wie Daten können genutzt werden, um es zu verbessern oder die Benutzer Erfahrung zu verbessern das System und die Software.

Wenn du “Ich stimme zu” klickst, erlaubst du uns, die Cookies zu benutzen die Geräte Bezeichnung, den Web oder ähnliche Technologien zu benutzen. Deine Settings, können in deinem Gerät bei deinem Browser geändert werden.

Für den bestimmten Zweck, berechtigten Interessen beruhen darauf, mehr als auf den Inhalt. Du kannst mehr darüber in unseren Privaten und Cookie Politik lesen.